Kodiak, AK

7:35 AM AKDT on September 30, 2016 (GMT -0800)
Kodiak

Weather History for PADQ - September, 2012

Change the Weather History Date:

Tuesday, September 11, 2012

  Actual Average Record
Temperature  
Mean Temperature 48 °F 51 °F  
Max Temperature 51 °F 57 °F 71 °F (1915)
Min Temperature 45 °F 45 °F 33 °F (1987)
Degree Days  
Heating Degree Days 17 14  
Month to date heating degree days 175 142  
Since 1 July heating degree days 909 775  
Cooling Degree Days 0 0  
Month to date cooling degree days 0 0  
Year to date cooling degree days 0 1  
Moisture  
Dew Point 47 °F    
Average Humidity 0    
Maximum Humidity 0    
Minimum Humidity 0    
Precipitation  
Precipitation 0.28 in 0.23 in 2.22 in (1957)
Month to date precipitation 0.92 2.29  
Year to date precipitation 34.33 49.08  
Snow  
Snow 0.00 in 0.00 in - ()
Month to date snowfall 0.0 0.0  
Since 1 July snowfall 0.0 0.0  
Since 1 September snowfall 0.0 0.0  
Snow Depth 0.00 in    
Sea Level Pressure  
Sea Level Pressure 29.66 in    
Wind  
Wind Speed 3 mph (ENE)    
Max Wind Speed 15 mph    
Max Gust Speed 17 mph    
Visibility 6 miles    
Events Rain    
T = Trace of Precipitation, MM = Missing Value Source: NWS Daily Summary

Daily Weather History Graph

Daily Weather History Graph

Search for Another Location

Airport or City:

Trip Planner

Search our weather history database for the weather conditions in past years. The results will help you decide how hot, cold, wet, or windy it might be!

Date:

Astronomy

Sep. 11, 2012 Rise Set
Actual Time 7:33 AM AKDT 8:38 PM AKDT
Civil Twilight 6:53 AM AKDT 9:17 PM AKDT
Nautical Twilight 6:04 AM AKDT 10:06 PM AKDT
Astronomical Twilight 5:08 AM AKDT 11:01 PM AKDT
Moon 2:12 AM AKDT (9/11) 6:34 PM AKDT (9/11)
Length of Visible Light 14h 24m
Length of Day
13h 05m
Waning Crescent, 20% of the Moon is Illuminated
Sep 11
Waning Crescent
Sep 15
New
Sep 22
First Quarter
Sep 29
Full
Oct 7
Last Quarter

Hourly Weather History & Observations

Time (AKDT) Temp. Windchill Dew Point Humidity Pressure Visibility Wind Dir Wind Speed Gust Speed Precip Events Conditions
12:53 AM 46.9 °F - 45.0 °F 93% 29.81 in 10.0 mi East 6.9 mph - N/A   Overcast
1:00 AM 46.4 °F 43.5 °F 44.6 °F 93% 29.81 in 10.0 mi East 5.8 mph - N/A   Overcast
1:53 AM 46.9 °F - 45.0 °F 93% 29.80 in 10.0 mi ESE 4.6 mph - N/A   Overcast
2:53 AM 46.9 °F - 45.0 °F 93% 29.80 in 10.0 mi Calm Calm - N/A   Overcast
3:53 AM 46.0 °F - 44.1 °F 93% 29.79 in 10.0 mi Calm Calm - N/A   Mostly Cloudy
4:15 AM 46.4 °F - 44.6 °F 93% 29.79 in 10.0 mi Calm Calm - N/A   Overcast
4:53 AM 46.0 °F - 45.0 °F 96% 29.78 in 10.0 mi Calm Calm - N/A   Overcast
5:53 AM 46.0 °F - 45.0 °F 96% 29.78 in 10.0 mi Calm Calm - N/A   Overcast
6:53 AM 46.0 °F - 45.0 °F 96% 29.75 in 10.0 mi Calm Calm - 0.03 in Rain Light Rain
7:53 AM 46.0 °F - 44.1 °F 93% 29.75 in 10.0 mi Calm Calm - 0.00 in   Mostly Cloudy
8:53 AM 46.9 °F - 45.0 °F 93% 29.73 in 10.0 mi ENE 4.6 mph - N/A   Overcast
9:53 AM 46.0 °F 43.9 °F 45.0 °F 96% 29.73 in 10.0 mi SSW 4.6 mph - N/A   Overcast
10:53 AM 48.0 °F - 45.0 °F 89% 29.70 in 10.0 mi Calm Calm - 0.01 in Rain Light Rain
11:53 AM 48.0 °F - 46.0 °F 93% 29.70 in 10.0 mi Calm Calm - 0.01 in   Overcast
12:26 PM 48.2 °F - 46.4 °F 93% 29.69 in 6.0 mi Calm Calm - 0.00 in Rain Light Rain
12:53 PM 48.0 °F - 46.9 °F 96% 29.69 in 6.0 mi Calm Calm - 0.02 in Rain Light Rain
1:10 PM 48.2 °F - 48.2 °F 100% 29.68 in 1.0 mi East 3.5 mph - 0.02 in Rain Rain
1:28 PM 50.0 °F - 48.2 °F 94% 29.67 in 0.8 mi ENE 8.1 mph - 0.05 in Rain Rain
1:53 PM 50.0 °F - 48.9 °F 96% 29.65 in 0.8 mi NE 8.1 mph - 0.09 in Rain Rain
2:24 PM 50.0 °F - 48.2 °F 94% 29.64 in 2.0 mi ENE 13.8 mph - 0.04 in Rain Light Rain
2:53 PM 50.0 °F - 48.9 °F 96% 29.62 in 2.0 mi ENE 13.8 mph - 0.05 in Rain Light Rain
3:53 PM 50.0 °F - 50.0 °F 100% 29.60 in 2.5 mi ENE 10.4 mph - 0.01 in   Overcast
4:27 PM 50.0 °F - 50.0 °F 100% 29.58 in 3.0 mi ENE 9.2 mph - N/A   Overcast
4:53 PM 51.1 °F - 50.0 °F 96% 29.57 in 3.0 mi ENE 10.4 mph - N/A   Overcast
5:05 PM 51.8 °F - 50.0 °F 94% 29.57 in 2.0 mi ENE 9.2 mph - N/A   Overcast
5:53 PM 51.1 °F - 50.0 °F 96% 29.56 in 2.0 mi ENE 4.6 mph - N/A   Overcast
6:11 PM 51.8 °F - 51.8 °F 100% 29.56 in 1.0 mi NE 4.6 mph - N/A   Overcast
6:53 PM 51.1 °F - 50.0 °F 96% 29.55 in 1.0 mi Calm Calm - N/A   Overcast
7:27 PM 51.8 °F - 50.0 °F 94% 29.54 in 2.0 mi Calm Calm - N/A   Overcast
7:53 PM 51.1 °F - 50.0 °F 96% 29.54 in 2.0 mi South 3.5 mph - N/A   Overcast
8:13 PM 50.0 °F - 50.0 °F 100% 29.54 in 3.0 mi Calm Calm - N/A   Overcast
8:53 PM 50.0 °F - 50.0 °F 100% 29.54 in 6.0 mi Calm Calm - N/A   Overcast
9:53 PM 50.0 °F - 48.9 °F 96% 29.53 in 5.0 mi Calm Calm - 0.00 in   Overcast
10:53 PM 50.0 °F - 50.0 °F 100% 29.53 in 5.0 mi NW 4.6 mph - 0.00 in Rain Light Rain
11:53 PM 50.0 °F - 48.0 °F 93% 29.53 in 5.0 mi South 4.6 mph - 0.03 in Rain Light Rain